Погода в Друскининкае

Литва     54°00′53″N   23°58′41″E
темп.,
°C
ветер,
м/с
пор.,
м/с
влажн.,
%
обл.,
%
осадки,
мм/ч
давл.,
гПа
погр.,
м
21 апреля, ср
ср2100:00+7всв1189100 0.0 101111
03:00+5ююз009345 0.0 101010
06:00+5з22906 0.0 100921
09:00+9зсз246977 0.0 1009313
12:00+14зсз354723 0.0 10081550
15:00+16зсз453461 0.0 10082344
18:00+15зсз453755 0.0 10072099
21:00+10зсз22645 0.0 100823
22 апреля, чт
чт2200:00+7з117361 0.0 100810
03:00+7зсз117277 0.0 100838
06:00+5с118614 0.3 100711
09:00+6зсз2592100 1.4 1009455
12:00+8юз576066 0.2 10091461
15:00+10юз693776 0.2 10102283
18:00+9зюз685111 0.2 10101798
21:00+5зюз5107633 0.4 1011840
23 апреля, пт
пт2300:00+3юз4108662 0.1 1011710
03:00+2юз411845 0.1 1011645
06:000юз4128891 0.0 1011576
09:00+2зюз4995100 0.2 1012670
12:00+7з6853100 0.8 10121935
15:00+7з6854100 1.8 10131806
18:00+5зсз5977100 1.3 10151185
21:00+2зсз4981100 1.6 1016908
24 апреля, сб
сб2400:00+1з4109299 0.2 1016842
03:00+2зсз6118478 0.7 10151019
06:00+1зсз51197100 0.2 1015740
09:00+2зсз498693 0.6 1016938
12:00+6зсз6854100 0.4 10151911
15:00+7зсз6846100 1.2 10152153
18:00+6зсз695194 0.7 10151852
21:00+2зсз510643 0.8 1016688
25 апреля, вс
вс2500:000з41181100 0.0 1016749
03:00+1зсз61395100 0.6 10141015
06:00+1зсз71381100 0.1 10141171
09:00+2зсз6128086 0.3 10141255
12:00+5зсз71166100 0.6 10151647
15:00+5зсз7127487 1.6 10141416
18:00+3зсз6128582 0.5 10151041
21:00+2зсз51185100 0.7 1016940